Weather History for KPHF - June, 2013

Change the Weather History Date:

Tuesday, June 25, 2013

  Actual Average Record
Temperature  
Mean Temperature 84 °F -  
Max Temperature 93 °F 85 °F 102 °F (1952)
Min Temperature 75 °F 67 °F 54 °F (1979)
Cooling Degree Days 19    
Growing Degree Days 34 (Base 50)    
Moisture  
Dew Point 70 °F    
Average Humidity 63    
Maximum Humidity 79    
Minimum Humidity 47    
Precipitation  
Precipitation 0.00 in - - ()
Sea Level Pressure  
Sea Level Pressure 30.02 in    
Wind  
Wind Speed 9 mph (SW)    
Max Wind Speed 15 mph    
Max Gust Speed 20 mph    
Visibility 10 miles    
Events      
Averages and records for this station are not official NWS values.
T = Trace of Precipitation, MM = Missing Value Source: NWS Daily Summary

Daily Weather History Graph

Daily Weather History Graph

Search for Another Location

Airport or City:

Trip Planner

Search our weather history database for the weather conditions in past years. The results will help you decide how hot, cold, wet, or windy it might be!

Date:

Astronomy

Jun. 25, 2013 Rise Set
Actual Time 5:47 AM EDT 8:29 PM EDT
Civil Twilight 5:16 AM EDT 9:00 PM EDT
Nautical Twilight 4:37 AM EDT 9:39 PM EDT
Astronomical Twilight 3:54 AM EDT 10:22 PM EDT
Moon 10:18 PM EDT (6/25) 8:21 AM EDT (6/25)
Length of Visible Light 15h 44m
Length of Day
14h 42m
Waning Gibbous, 93% of the Moon is Illuminated
Jun 25
Waning Gibbous
Jun 30
Last Quarter
Jul 8
New
Jul 15
First Quarter
Jul 22
Full

Hourly Weather History & Observations

Time (EDT) Temp. Heat Index Dew Point Humidity Pressure Visibility Wind Dir Wind Speed Gust Speed Precip Events Conditions
12:54 AM 79.0 °F - 71.1 °F 77% 30.08 in 10.0 mi SW 8.1 mph - N/A   Clear
1:54 AM 78.1 °F - 70.0 °F 76% 30.07 in 10.0 mi SW 8.1 mph - N/A   Clear
2:54 AM 78.1 °F - 70.0 °F 76% 30.07 in 10.0 mi SW 8.1 mph - N/A   Partly Cloudy
3:54 AM 77.0 °F - 69.1 °F 76% 30.07 in 10.0 mi SW 10.4 mph - N/A   Partly Cloudy
4:54 AM 75.9 °F - 69.1 °F 79% 30.06 in 10.0 mi SW 9.2 mph - N/A   Partly Cloudy
5:54 AM 75.9 °F - 69.1 °F 79% 30.06 in 10.0 mi WSW 6.9 mph - N/A   Partly Cloudy
6:54 AM 77.0 °F - 69.1 °F 76% 30.06 in 10.0 mi SW 10.4 mph - N/A   Clear
7:54 AM 79.0 °F - 69.1 °F 72% 30.05 in 10.0 mi WSW 11.5 mph - N/A   Clear
8:54 AM 82.0 °F 85.9 °F 70.0 °F 67% 30.06 in 10.0 mi West 10.4 mph - N/A   Partly Cloudy
9:54 AM 84.9 °F 89.4 °F 70.0 °F 61% 30.05 in 10.0 mi West 9.2 mph - N/A   Partly Cloudy
10:54 AM 87.1 °F 92.8 °F 71.1 °F 59% 30.05 in 10.0 mi WSW 11.5 mph - N/A   Clear
11:54 AM 88.0 °F 93.8 °F 71.1 °F 57% 30.05 in 10.0 mi WSW 10.4 mph - N/A   Clear
12:54 PM 91.0 °F 97.6 °F 71.1 °F 52% 30.04 in 10.0 mi SW 13.8 mph 17.3 mph N/A   Clear
1:54 PM 90.0 °F 96.4 °F 71.1 °F 54% 30.03 in 10.0 mi West 5.8 mph 19.6 mph N/A   Mostly Cloudy
2:54 PM 93.9 °F 100.8 °F 71.1 °F 47% 30.01 in 10.0 mi WSW 8.1 mph - N/A   Scattered Clouds
3:54 PM 91.9 °F 97.4 °F 70.0 °F 48% 29.99 in 10.0 mi SW 4.6 mph - N/A   Clear
4:54 PM 93.0 °F 100.7 °F 72.0 °F 50% 29.97 in 10.0 mi SW 6.9 mph - N/A   Clear
5:54 PM 93.0 °F 99.0 °F 70.0 °F 47% 29.96 in 10.0 mi WSW 6.9 mph - N/A   Clear
6:54 PM 91.0 °F 97.6 °F 71.1 °F 52% 29.96 in 10.0 mi SW 9.2 mph - N/A   Clear
7:54 PM 89.1 °F 94.1 °F 70.0 °F 53% 29.94 in 10.0 mi SW 9.2 mph - N/A   Clear
8:54 PM 87.1 °F 92.8 °F 71.1 °F 59% 29.96 in 10.0 mi SW 8.1 mph - N/A   Clear
9:54 PM 84.9 °F 90.7 °F 72.0 °F 65% 29.99 in 10.0 mi SW 15.0 mph - N/A   Clear
10:54 PM 82.9 °F 87.0 °F 70.0 °F 65% 29.99 in 10.0 mi WSW 10.4 mph - N/A   Clear
11:54 PM 81.0 °F 84.1 °F 69.1 °F 67% 29.97 in 10.0 mi WSW 10.4 mph - N/A   Clear